Location: Bothwell
(42.3833°S, 147.0000°E)
Time: 21:19:55
(UTC+11:00)

BEESAT - Pass Details

Date: 03 October 2022
Orbit: 699 x 706 km, 98.5° (Epoch: 25 November)

Event Time Altitude Azimuth Distance (km) Brightness Sun altitude
Exits shadow 20:38:19 15° 30° (NNE) 1,858 ? -14.8°
Maximum altitude 20:42:12 61° 107° (ESE) 813 ? -15.5°
Drops below altitude 10° 20:46:59 10° 187° (S) 2,213 ? -16.3°
Sets 20:49:17 0° 189° (S) 3,140 ? -16.7°
